N100CX UAAH-UABN

Flight info

Callsign N100CX
Flight time N/A
Altitude 5000
Route 4645N07432E/ALPHA 4638N07421E/GULSHAT ABMIK MALOD 4448N07614E/BAKANAS
Aircraft C414/L-S/N

Departure

Time 2026-04-26 13:39
Airport Balkhash Airport (UAAH)

Arrival

Time N/A
Airport UABN
Time Latitude Longitude Altitude Speed Heading
2026-04-26 13:29 46.88496 75.00226 1392 ft 0 kts 92°
2026-04-26 13:35 46.88529 75.00242 1392 ft 13 kts 279°
2026-04-26 13:35 46.88590 75.00142 1398 ft 18 kts 319°
2026-04-26 13:35 46.88708 75.00015 1397 ft 19 kts 326°
2026-04-26 13:35 46.88820 74.99899 1398 ft 19 kts 323°
2026-04-26 13:36 46.88914 74.99801 1392 ft 1 kts 323°
2026-04-26 13:36 46.88964 74.99749 1393 ft 21 kts 323°
2026-04-26 13:37 46.89079 74.99812 1393 ft 24 kts 52°
2026-04-26 13:37 46.89204 75.00041 1395 ft 32 kts 52°
2026-04-26 13:37 46.89332 75.00282 1389 ft 30 kts 51°
2026-04-26 13:37 46.89461 75.00523 1388 ft 27 kts 50°
2026-04-26 13:38 46.89574 75.00737 1388 ft 25 kts 56°
2026-04-26 13:38 46.89608 75.00785 1399 ft 9 kts 224°
2026-04-26 13:38 46.89475 75.00543 1390 ft 56 kts 231°
2026-04-26 13:38 46.89148 74.99934 1448 ft 89 kts 232°
2026-04-26 13:39 46.88758 74.99125 1623 ft 105 kts 234°
2026-04-26 13:39 46.88364 74.98198 1894 ft 108 kts 253°
2026-04-26 13:39 46.88364 74.97069 2030 ft 121 kts 275°
2026-04-26 13:39 46.88318 74.95877 2299 ft 119 kts 250°
2026-04-26 13:40 46.87992 74.94737 2521 ft 124 kts 243°
2026-04-26 13:40 46.87613 74.93602 2759 ft 124 kts 246°
2026-04-26 13:40 46.87248 74.92468 3006 ft 123 kts 246°
2026-04-26 13:40 46.86885 74.91320 3254 ft 126 kts 246°
2026-04-26 13:41 46.86521 74.90151 3496 ft 128 kts 246°
2026-04-26 13:41 46.86152 74.88966 3743 ft 129 kts 245°
2026-04-26 13:41 46.85777 74.87760 3991 ft 131 kts 245°
2026-04-26 13:41 46.85399 74.86547 4234 ft 131 kts 246°
2026-04-26 13:42 46.85023 74.85338 4489 ft 131 kts 245°
2026-04-26 13:42 46.84649 74.84137 4734 ft 130 kts 246°
2026-04-26 13:42 46.84275 74.82939 4964 ft 130 kts 246°
2026-04-26 13:42 46.83883 74.81677 5006 ft 144 kts 245°
2026-04-26 13:43 46.83458 74.80311 5015 ft 151 kts 246°
2026-04-26 13:43 46.83017 74.78894 5014 ft 155 kts 246°
2026-04-26 13:43 46.82566 74.77451 5013 ft 158 kts 245°
2026-04-26 13:43 46.82108 74.75987 5011 ft 160 kts 245°
2026-04-26 13:44 46.81644 74.74507 5011 ft 161 kts 246°
2026-04-26 13:44 46.81180 74.73017 5012 ft 162 kts 246°
2026-04-26 13:44 46.80714 74.71526 5010 ft 162 kts 246°
2026-04-26 13:44 46.80247 74.70034 5012 ft 163 kts 246°
2026-04-26 13:45 46.79776 74.68530 5009 ft 163 kts 246°
2026-04-26 13:45 46.79303 74.67027 5009 ft 164 kts 246°
2026-04-26 13:45 46.78828 74.65512 5009 ft 165 kts 246°
2026-04-26 13:45 46.78349 74.63987 5010 ft 166 kts 246°
2026-04-26 13:46 46.77870 74.62459 5015 ft 167 kts 246°
2026-04-26 13:46 46.77387 74.60925 5015 ft 167 kts 247°
2026-04-26 13:46 46.76904 74.59388 5013 ft 167 kts 246°
2026-04-26 13:46 46.76417 74.57841 5011 ft 168 kts 246°
2026-04-26 13:47 46.75932 74.56298 5011 ft 168 kts 246°
2026-04-26 13:47 46.75443 74.54750 5011 ft 169 kts 246°
2026-04-26 13:47 46.74917 74.53220 5008 ft 170 kts 237°
2026-04-26 13:47 46.74120 74.51965 5001 ft 169 kts 230°
2026-04-26 13:48 46.73326 74.50707 5000 ft 168 kts 231°
2026-04-26 13:48 46.72538 74.49456 5000 ft 168 kts 230°
2026-04-26 13:48 46.71745 74.48209 5000 ft 168 kts 230°
2026-04-26 13:48 46.70953 74.46964 4999 ft 168 kts 230°
2026-04-26 13:49 46.70162 74.45720 5000 ft 168 kts 230°
2026-04-26 13:49 46.69369 74.44474 5003 ft 168 kts 230°
2026-04-26 13:49 46.68570 74.43219 5001 ft 170 kts 230°
2026-04-26 13:49 46.67773 74.41966 5000 ft 168 kts 230°
2026-04-26 13:50 46.66976 74.40718 5006 ft 169 kts 230°
2026-04-26 13:50 46.66176 74.39461 5005 ft 170 kts 230°
2026-04-26 13:50 46.65377 74.38207 5009 ft 170 kts 231°
2026-04-26 13:50 46.64566 74.36933 5012 ft 174 kts 231°
2026-04-26 13:51 46.63622 74.35832 5003 ft 179 kts 210°
2026-04-26 13:51 46.62397 74.35445 5006 ft 186 kts 185°
2026-04-26 13:51 46.61113 74.35806 5006 ft 189 kts 171°
2026-04-26 13:51 46.59841 74.36277 5009 ft 189 kts 172°
2026-04-26 13:52 46.58564 74.36742 5011 ft 190 kts 172°
2026-04-26 13:52 46.57287 74.37209 5013 ft 190 kts 172°
2026-04-26 13:52 46.56011 74.37675 5012 ft 189 kts 172°
2026-04-26 13:52 46.54736 74.38141 5010 ft 189 kts 173°
2026-04-26 13:53 46.53463 74.38613 5014 ft 189 kts 172°
2026-04-26 13:53 46.52189 74.39073 5013 ft 189 kts 172°
2026-04-26 13:53 46.50919 74.39528 5000 ft 189 kts 172°
2026-04-26 13:53 46.49649 74.39992 4999 ft 188 kts 172°
2026-04-26 13:54 46.48384 74.40455 4996 ft 188 kts 172°
2026-04-26 13:54 46.47116 74.40915 5000 ft 188 kts 172°
2026-04-26 13:54 46.45848 74.41376 5000 ft 188 kts 173°
2026-04-26 13:55 46.43312 74.42298 5006 ft 189 kts 172°
2026-04-26 13:55 46.42462 74.42606 5007 ft 189 kts 172°
2026-04-26 13:55 46.39469 74.43691 5010 ft 192 kts 172°
2026-04-26 13:56 46.38178 74.44159 5007 ft 192 kts 172°
2026-04-26 13:56 46.36886 74.44628 5008 ft 192 kts 172°
2026-04-26 13:56 46.35592 74.45096 5009 ft 192 kts 172°
2026-04-26 13:56 46.34297 74.45564 5009 ft 192 kts 172°
2026-04-26 13:57 46.33000 74.46034 5012 ft 192 kts 172°
2026-04-26 13:57 46.31706 74.46501 5006 ft 191 kts 172°
2026-04-26 13:57 46.30420 74.46966 5007 ft 191 kts 173°
2026-04-26 13:57 46.29136 74.47432 5005 ft 190 kts 173°
2026-04-26 13:58 46.27858 74.47892 5006 ft 189 kts 173°
2026-04-26 13:58 46.26589 74.48349 5005 ft 188 kts 173°
2026-04-26 13:58 46.25320 74.48807 5006 ft 188 kts 173°
2026-04-26 13:58 46.24055 74.49263 5002 ft 188 kts 173°
2026-04-26 13:59 46.22789 74.49719 5007 ft 187 kts 173°
2026-04-26 13:59 46.21526 74.50174 5006 ft 188 kts 173°
2026-04-26 13:59 46.20262 74.50629 5006 ft 188 kts 173°
2026-04-26 14:00 46.16470 74.51995 5010 ft 187 kts 173°
2026-04-26 14:00 46.15208 74.52445 5010 ft 187 kts 173°
2026-04-26 14:00 46.14367 74.52747 5013 ft 187 kts 173°
2026-04-26 14:01 46.12683 74.53352 5012 ft 188 kts 173°
2026-04-26 14:01 46.11414 74.53807 5015 ft 189 kts 172°
2026-04-26 14:01 46.10139 74.54265 5015 ft 189 kts 172°
2026-04-26 14:01 46.08863 74.54722 5016 ft 189 kts 172°
2026-04-26 14:02 46.07588 74.55179 5016 ft 190 kts 172°
2026-04-26 14:02 46.06309 74.55637 5017 ft 190 kts 172°
2026-04-26 14:02 46.05030 74.56095 5017 ft 190 kts 172°
2026-04-26 14:02 46.03751 74.56553 5017 ft 190 kts 172°
2026-04-26 14:03 46.02473 74.57009 5019 ft 190 kts 172°
2026-04-26 14:03 46.01196 74.57466 5019 ft 190 kts 172°
2026-04-26 14:03 45.99915 74.57922 5024 ft 190 kts 172°
2026-04-26 14:03 45.98631 74.58378 5015 ft 190 kts 172°
2026-04-26 14:04 45.97355 74.58839 5023 ft 190 kts 172°
2026-04-26 14:04 45.96071 74.59296 5016 ft 191 kts 173°
2026-04-26 14:04 45.94791 74.59751 5020 ft 190 kts 173°
2026-04-26 14:04 45.93536 74.60331 5012 ft 194 kts 158°
2026-04-26 14:05 45.92402 74.61393 5011 ft 194 kts 153°
2026-04-26 14:05 45.91269 74.62426 5015 ft 193 kts 154°
2026-04-26 14:05 45.90134 74.63462 5016 ft 194 kts 153°
2026-04-26 14:05 45.89002 74.64502 5013 ft 193 kts 153°
2026-04-26 14:06 45.87874 74.65538 5014 ft 193 kts 153°
2026-04-26 14:06 45.86747 74.66573 5015 ft 192 kts 154°
2026-04-26 14:06 45.85622 74.67602 5014 ft 192 kts 154°
2026-04-26 14:06 45.84497 74.68635 5018 ft 193 kts 154°
2026-04-26 14:07 45.83363 74.69670 5024 ft 195 kts 154°
2026-04-26 14:07 45.82226 74.70718 5018 ft 194 kts 153°
2026-04-26 14:07 45.81090 74.71754 5020 ft 193 kts 154°
2026-04-26 14:07 45.79955 74.72791 5021 ft 195 kts 153°
2026-04-26 14:08 45.78818 74.73836 5013 ft 192 kts 153°
2026-04-26 14:08 45.77690 74.74864 5019 ft 193 kts 153°
2026-04-26 14:08 45.76567 74.75900 5024 ft 192 kts 154°
2026-04-26 14:08 45.75435 74.76915 5021 ft 192 kts 154°
2026-04-26 14:09 45.74301 74.77935 5009 ft 194 kts 154°
2026-04-26 14:09 45.73168 74.78981 5009 ft 195 kts 153°
2026-04-26 14:09 45.72033 74.80031 5009 ft 194 kts 153°
2026-04-26 14:09 45.70892 74.81068 5011 ft 194 kts 153°
2026-04-26 14:10 45.69755 74.82101 5018 ft 194 kts 154°
2026-04-26 14:10 45.68616 74.83142 5014 ft 195 kts 153°
2026-04-26 14:10 45.67477 74.84184 5020 ft 195 kts 153°
2026-04-26 14:10 45.66329 74.85219 5011 ft 195 kts 153°
2026-04-26 14:11 45.64048 74.87288 5020 ft 195 kts 153°
2026-04-26 14:11 45.62901 74.88333 5020 ft 196 kts 154°
2026-04-26 14:11 45.61755 74.89374 5015 ft 195 kts 154°
2026-04-26 14:12 45.60610 74.90413 5019 ft 195 kts 153°
2026-04-26 14:12 45.59467 74.91451 5021 ft 195 kts 153°
2026-04-26 14:12 45.58324 74.92482 5020 ft 194 kts 153°
2026-04-26 14:12 45.57184 74.93514 5018 ft 194 kts 153°
2026-04-26 14:13 45.54914 74.95569 5012 ft 194 kts 153°
2026-04-26 14:13 45.53779 74.96598 5011 ft 194 kts 153°
2026-04-26 14:13 45.52637 74.97629 5011 ft 195 kts 153°
2026-04-26 14:14 45.51494 74.98663 5017 ft 195 kts 153°
2026-04-26 14:14 45.50350 74.99695 5017 ft 196 kts 153°
2026-04-26 14:14 45.49204 75.00731 5017 ft 196 kts 153°
2026-04-26 14:14 45.48057 75.01768 5017 ft 195 kts 153°
2026-04-26 14:15 45.46913 75.02800 5018 ft 195 kts 153°
2026-04-26 14:15 45.45762 75.03834 5014 ft 196 kts 153°
2026-04-26 14:15 45.44615 75.04872 5018 ft 195 kts 153°
2026-04-26 14:15 45.43471 75.05901 5022 ft 195 kts 153°
2026-04-26 14:16 45.42322 75.06933 5019 ft 195 kts 152°
2026-04-26 14:16 45.41178 75.07955 5026 ft 195 kts 154°
2026-04-26 14:16 45.40028 75.08985 5022 ft 196 kts 152°
2026-04-26 14:16 45.38887 75.10030 5012 ft 195 kts 152°
2026-04-26 14:17 45.37742 75.11062 5021 ft 195 kts 153°
2026-04-26 14:17 45.36598 75.12079 5019 ft 195 kts 153°
2026-04-26 14:17 45.35453 75.13105 5019 ft 195 kts 153°
2026-04-26 14:17 45.34312 75.14131 5021 ft 195 kts 152°
2026-04-26 14:18 45.33167 75.15157 5020 ft 195 kts 152°
2026-04-26 14:18 45.32022 75.16182 5021 ft 195 kts 152°
2026-04-26 14:18 45.30875 75.17216 5025 ft 196 kts 151°
2026-04-26 14:18 45.29904 75.18594 5024 ft 202 kts 127°
2026-04-26 14:19 45.29142 75.20266 5021 ft 202 kts 128°
2026-04-26 14:19 45.28360 75.21915 5021 ft 201 kts 128°
2026-04-26 14:19 45.27579 75.23568 5017 ft 203 kts 127°
2026-04-26 14:19 45.26800 75.25232 5019 ft 202 kts 127°
2026-04-26 14:20 45.26030 75.26886 5023 ft 202 kts 127°
2026-04-26 14:20 45.25251 75.28546 5024 ft 202 kts 127°
2026-04-26 14:20 45.24474 75.30199 5024 ft 203 kts 127°
2026-04-26 14:20 45.23689 75.31869 5021 ft 203 kts 127°
2026-04-26 14:21 45.22910 75.33527 5020 ft 201 kts 127°
2026-04-26 14:21 45.22133 75.35173 4988 ft 203 kts 127°
2026-04-26 14:21 45.21356 75.36819 4734 ft 200 kts 126°
2026-04-26 14:21 45.20597 75.38447 4481 ft 198 kts 127°
2026-04-26 14:22 45.19832 75.40061 4233 ft 197 kts 127°
2026-04-26 14:22 45.19071 75.41671 3990 ft 196 kts 126°
2026-04-26 14:22 45.18316 75.43273 3745 ft 195 kts 127°
2026-04-26 14:22 45.17559 75.44875 3511 ft 197 kts 127°
2026-04-26 14:23 45.16798 75.46484 3276 ft 198 kts 126°
2026-04-26 14:23 45.16040 75.48093 3045 ft 195 kts 126°
2026-04-26 14:23 45.15291 75.49674 3031 ft 196 kts 126°
2026-04-26 14:23 45.14526 75.51295 3034 ft 200 kts 126°
2026-04-26 14:24 45.13747 75.52942 3033 ft 202 kts 126°
2026-04-26 14:24 45.12960 75.54604 3034 ft 205 kts 126°
2026-04-26 14:24 45.12164 75.56280 3035 ft 206 kts 126°
2026-04-26 14:24 45.11363 75.57970 3034 ft 207 kts 126°
2026-04-26 14:25 45.10564 75.59659 3027 ft 207 kts 126°
2026-04-26 14:25 45.09765 75.61337 3030 ft 206 kts 126°
2026-04-26 14:25 45.08966 75.63017 3029 ft 206 kts 126°
2026-04-26 14:25 45.08171 75.64694 3033 ft 206 kts 126°
2026-04-26 14:26 45.07366 75.66380 3031 ft 208 kts 126°
2026-04-26 14:26 45.06555 75.68084 3024 ft 211 kts 126°
2026-04-26 14:26 45.05743 75.69792 3032 ft 207 kts 125°
2026-04-26 14:26 45.04947 75.71468 3029 ft 204 kts 125°
2026-04-26 14:27 45.04161 75.73115 3029 ft 202 kts 125°
2026-04-26 14:27 45.03377 75.74757 3033 ft 202 kts 125°
2026-04-26 14:27 45.02596 75.76398 3028 ft 200 kts 125°
2026-04-26 14:27 45.01820 75.78015 3027 ft 199 kts 126°
2026-04-26 14:28 45.01047 75.79633 3022 ft 198 kts 124°
2026-04-26 14:28 45.00279 75.81243 3025 ft 198 kts 124°
2026-04-26 14:28 44.99506 75.82853 3022 ft 198 kts 125°
2026-04-26 14:28 44.98735 75.84465 3022 ft 198 kts 124°
2026-04-26 14:29 44.97967 75.86075 3020 ft 197 kts 124°
2026-04-26 14:29 44.97198 75.87680 3021 ft 198 kts 125°
2026-04-26 14:29 44.96429 75.89282 3024 ft 197 kts 125°
2026-04-26 14:29 44.95662 75.90881 3024 ft 198 kts 125°
2026-04-26 14:30 44.94891 75.92483 3026 ft 198 kts 125°
2026-04-26 14:30 44.94121 75.94088 3026 ft 197 kts 125°
2026-04-26 14:30 44.93352 75.95689 3026 ft 198 kts 125°
2026-04-26 14:30 44.92579 75.97299 3028 ft 199 kts 125°
2026-04-26 14:31 44.91803 75.98911 3026 ft 199 kts 125°
2026-04-26 14:31 44.91028 76.00527 3029 ft 199 kts 126°
2026-04-26 14:31 44.90249 76.02139 3034 ft 199 kts 126°
2026-04-26 14:31 44.89475 76.03745 3036 ft 198 kts 126°
2026-04-26 14:32 44.88700 76.05346 3033 ft 197 kts 125°
2026-04-26 14:32 44.87937 76.06934 3026 ft 194 kts 126°
2026-04-26 14:32 44.87177 76.08509 3031 ft 195 kts 126°
2026-04-26 14:32 44.86411 76.10088 3030 ft 196 kts 126°
2026-04-26 14:33 44.85651 76.11676 3032 ft 195 kts 126°
2026-04-26 14:33 44.84897 76.13259 3023 ft 194 kts 125°
2026-04-26 14:33 44.84135 76.14824 3032 ft 195 kts 127°
2026-04-26 14:33 44.83354 76.16392 3025 ft 196 kts 126°
2026-04-26 14:34 44.82591 76.17976 3028 ft 196 kts 126°
2026-04-26 14:34 44.81819 76.19571 2876 ft 196 kts 126°
2026-04-26 14:34 44.81080 76.21114 2711 ft 185 kts 126°
2026-04-26 14:34 44.80382 76.22559 2545 ft 174 kts 127°
2026-04-26 14:35 44.79695 76.23873 2530 ft 165 kts 133°
2026-04-26 14:35 44.78952 76.25127 2531 ft 169 kts 132°
2026-04-26 14:35 44.78195 76.26437 2511 ft 175 kts 132°
2026-04-26 14:35 44.77424 76.27770 2513 ft 178 kts 132°
2026-04-26 14:36 44.76638 76.29128 2515 ft 180 kts 133°
2026-04-26 14:36 44.75869 76.30531 2536 ft 182 kts 124°
2026-04-26 14:36 44.75364 76.32173 2522 ft 186 kts 111°
2026-04-26 14:36 44.75062 76.33934 2520 ft 186 kts 105°
2026-04-26 14:37 44.74796 76.35703 2519 ft 185 kts 104°
2026-04-26 14:37 44.74766 76.37514 2531 ft 185 kts 95°
2026-04-26 14:37 44.74460 76.39187 2535 ft 177 kts 117°
2026-04-26 14:37 44.73919 76.40756 2519 ft 178 kts 124°
2026-04-26 14:38 44.73260 76.42230 2529 ft 179 kts 127°
2026-04-26 14:38 44.72572 76.43684 2591 ft 178 kts 128°
2026-04-26 14:38 44.71877 76.45111 2628 ft 177 kts 131°
2026-04-26 14:38 44.71141 76.46502 2660 ft 177 kts 131°
2026-04-26 14:39 44.70415 76.47887 2720 ft 175 kts 132°
2026-04-26 14:39 44.69664 76.49252 2694 ft 179 kts 131°
2026-04-26 14:39 44.68905 76.50659 2679 ft 181 kts 131°
2026-04-26 14:39 44.68129 76.52041 2708 ft 180 kts 131°
2026-04-26 14:40 44.67352 76.53388 2741 ft 177 kts 136°
2026-04-26 14:40 44.66505 76.54635 2734 ft 179 kts 139°
2026-04-26 14:40 44.65606 76.55857 2706 ft 180 kts 142°
2026-04-26 14:40 44.64655 76.56983 2717 ft 179 kts 142°
2026-04-26 14:41 44.63731 76.58173 2700 ft 182 kts 139°
2026-04-26 14:41 44.62816 76.59422 2629 ft 185 kts 139°
2026-04-26 14:41 44.61935 76.60680 2471 ft 175 kts 138°
2026-04-26 14:41 44.61150 76.61908 2274 ft 167 kts 131°
2026-04-26 14:42 44.60431 76.63150 2026 ft 160 kts 141°
2026-04-26 14:42 44.59483 76.63746 1777 ft 146 kts 175°
2026-04-26 14:42 44.58529 76.63824 1588 ft 126 kts 178°
2026-04-26 14:42 44.57739 76.63862 1471 ft 102 kts 178°
2026-04-26 14:43 44.57085 76.63895 1368 ft 88 kts 177°
2026-04-26 14:43 44.56546 76.63924 1344 ft 58 kts 178°
2026-04-26 14:43 44.56342 76.63931 1344 ft 8 kts 134°
2026-04-26 14:43 44.56356 76.63958 1347 ft 3 kts 277°